PST,Max TemperatureF,Mean TemperatureF,Min TemperatureF,Max Dew PointF,MeanDew PointF,Min DewpointF,Max Humidity, Mean Humidity, Min Humidity, Max Sea Level PressureIn, Mean Sea Level PressureIn, Min Sea Level PressureIn, Max VisibilityMiles, Mean VisibilityMiles, Min VisibilityMiles, Max Wind SpeedMPH, Mean Wind SpeedMPH, Max Gust SpeedMPH,PrecipitationIn, CloudCover, Events, WindDirDegrees
2012-11-1,59,52,46,51,48,45,100,89,72,30.07,29.89,29.77,10,8,1,8,1,,0.10,5,Rain,335
2012-11-2,59,50,41,50,45,39,100,87,67,30.11,30.07,30.02,10,8,1,8,2,,0.05,4,Rain,356
2012-11-3,63,56,50,53,51,48,96,87,70,30.18,30.10,30.03,10,9,4,6,1,,0.01,5,Rain,147
2012-11-4,68,60,51,56,52,48,93,83,65,30.30,30.28,30.20,10,10,10,7,1,,0.00,4,,35
2012-11-5,72,60,48,57,51,46,100,87,57,30.32,30.25,30.16,10,6,0,16,2,,0.00,4,Fog,301
2012-11-6,64,58,52,54,51,46,100,82,54,30.15,30.05,29.92,10,7,0,16,2,23,0.00,6,Fog,323
2012-11-7,57,48,39,45,37,33,83,61,40,30.15,30.07,29.95,10,10,10,17,10,26,0.00,4,,305
2012-11-8,50,42,35,38,35,32,89,78,57,29.93,29.82,29.76,10,10,10,13,2,,0.00,6,,56
2012-11-9,52,41,30,37,31,27,92,73,41,29.94,29.86,29.82,10,10,10,13,3,,0.00,3,,225
2012-11-10,48,42,36,36,33,27,93,74,48,30.27,30.07,29.93,10,10,9,12,2,,0.06,7,Rain,84
2012-11-11,45,40,35,39,33,30,89,77,56,30.32,30.29,30.26,10,10,9,6,2,,0.02,8,Rain,78
2012-11-12,46,44,41,45,41,37,93,88,76,30.28,30.24,30.20,10,10,7,9,5,,0.11,8,Rain,329
2012-11-13,50,47,44,45,43,41,93,87,76,30.28,30.23,30.18,10,9,3,5,1,,0.01,8,Rain,95
2012-11-14,57,49,41,45,43,39,93,82,64,30.32,30.27,30.22,10,10,7,12,2,,0.00,5,,113
2012-11-15,46,44,42,41,37,35,83,77,71,30.30,30.17,30.05,10,10,10,13,9,,0.00,8,,83
2012-11-16,46,44,42,38,37,36,82,76,66,30.04,29.99,29.92,10,10,8,9,1,,0.00,8,,105
2012-11-17,45,41,37,41,38,35,92,83,76,29.90,29.74,29.62,10,7,2,10,5,,0.12,7,Rain,148
2012-11-18,50,44,37,42,39,36,93,84,68,29.89,29.83,29.71,10,10,8,8,3,,0.00,7,Rain,50
2012-11-19,62,54,46,49,45,39,93,79,46,29.76,29.67,29.56,10,10,8,21,6,26,0.35,8,Rain,23
2012-11-20,57,51,43,49,44,37,100,81,46,29.79,29.72,29.65,10,9,3,18,5,24,0.34,7,Rain,321
2012-11-21,53,46,37,43,37,33,97,75,50,30.35,29.98,29.66,10,10,8,22,5,36,0.05,5,Rain,289
2012-11-22,46,39,32,38,33,28,89,83,63,30.45,30.40,30.36,10,10,10,6,2,,0.00,2,,109
2012-11-23,45,39,33,42,36,30,100,90,74,30.37,30.27,30.14,10,10,5,5,0,,0.24,6,Rain,123
2012-11-24,53,48,39,45,41,35,100,83,61,30.21,30.18,30.15,10,8,4,12,4,,0.17,4,Rain,327
2012-11-25,48,40,33,37,34,29,89,81,61,30.32,30.29,30.22,10,10,10,10,2,,0.00,1,,236
2012-11-26,39,34,28,32,30,26,93,81,70,30.33,30.28,30.24,10,10,9,15,2,,0.00,6,,89
2012-11-27,39,38,37,31,30,30,79,74,70,30.28,30.23,30.15,10,10,9,8,6,,0.00,8,,131
2012-11-28,39,38,36,33,32,31,89,81,73,30.14,29.96,29.85,10,8,5,12,5,,0.03,8,Rain,93
2012-11-29,39,37,35,36,33,32,93,86,76,29.91,29.77,29.62,9,7,4,10,2,,0.05,8,Rain,66
2012-11-30,46,40,35,40,37,34,100,90,79,29.62,29.58,29.53,10,6,1,6,1,,0.02,7,Rain,99